This is the latest recevied weather packets stored in our database for station/object W1ERB-13. If no packets are shown the sender has not sent any weather packets the latest 10 day(s).
| Time | Temp. | Humidity | Pressure | Rain* | Wind** | Luminosity | Snow |
|---|---|---|---|---|---|---|---|
| 1778168332 | 13.89° C | 40% | 1009.6 hPa | 0 mm | - | 750 W/m² | - |
| 1778168028 | 13.89° C | 45% | 1009.3 hPa | 0 mm | - | 754 W/m² | - |
| 1778167911 | 13.89° C | 42% | 1009.5 hPa | 0 mm | - | 746 W/m² | - |
| 1778167724 | 13.89° C | 42% | 1009.5 hPa | 0 mm | - | 746 W/m² | - |
| 1778167469 | 13.89° C | 40% | 1009.6 hPa | 0 mm | - | 730 W/m² | - |
| 1778167420 | 13.89° C | 43% | 1009.4 hPa | 0 mm | - | 729 W/m² | - |
| 1778167117 | 13.89° C | 40% | 1009.6 hPa | 0 mm | - | 730 W/m² | - |
| 1778166813 | 13.89° C | 43% | 1009.6 hPa | 0 mm | - | 738 W/m² | - |
| 1778166510 | 15° C | 39% | 1009.7 hPa | 0 mm | - | 766 W/m² | - |
| 1778166207 | 15° C | 41% | 1009.8 hPa | 0 mm | - | 795 W/m² | - |
| 1778165903 | 13.89° C | 41% | 1009.7 hPa | 0 mm | - | 794 W/m² | - |
| 1778165599 | 13.89° C | 41% | 1009.7 hPa | 0 mm | - | 748 W/m² | - |
| 1778165297 | 13.89° C | 48% | 1009.6 hPa | 0 mm | - | 725 W/m² | - |
| 1778164994 | 13.33° C | 46% | 1009.5 hPa | 0 mm | - | 780 W/m² | - |
| 1778164690 | 13.89° C | 43% | 1009.7 hPa | 0 mm | - | 771 W/m² | - |
| 1778164388 | 13.89° C | 45% | 1009.8 hPa | 0 mm | - | 795 W/m² | - |
| 1778164083 | 14.44° C | 48% | 1009.5 hPa | 0 mm | - | 810 W/m² | - |
| 1778163780 | 13.33° C | 48% | 1009.8 hPa | 0 mm | - | 813 W/m² | - |
| 1778163477 | 13.33° C | 49% | 1009.7 hPa | 0 mm | - | 817 W/m² | - |
| 1778163174 | 13.33° C | 49% | 1009.8 hPa | 0 mm | - | 783 W/m² | - |
| 1778162870 | 12.78° C | 45% | 1009.8 hPa | 0 mm | - | 757 W/m² | - |
| 1778162567 | 12.78° C | 52% | 1009.9 hPa | 0 mm | - | 749 W/m² | - |
| 1778162264 | 12.78° C | 50% | 1009.9 hPa | 0 mm | - | 703 W/m² | - |
| 1778161962 | 12.22° C | 50% | 1009.6 hPa | 0 mm | - | 714 W/m² | - |
| 1778161657 | 12.78° C | 52% | 1009.8 hPa | 0 mm | - | 709 W/m² | - |
* Rain latest hour (hover to see other rain measurements)
** Current wind speed in m/s (hover to see current wind gust speed)